CDT,Max TemperatureF,Mean TemperatureF,Min TemperatureF,Max Dew PointF,MeanDew PointF,Min DewpointF,Max Humidity, Mean Humidity, Min Humidity, Max Sea Level PressureIn, Mean Sea Level PressureIn, Min Sea Level PressureIn, Max VisibilityMiles, Mean VisibilityMiles, Min VisibilityMiles, Max Wind SpeedMPH, Mean Wind SpeedMPH, Max Gust SpeedMPH,PrecipitationIn, CloudCover, Events, WindDirDegrees
2012-10-1,69,56,42,41,35,25,81,51,23,29.96,29.89,29.83,10,10,7,15,4,23,0.00,1,,340
2012-10-2,69,50,32,34,28,19,93,49,15,29.96,29.89,29.81,10,10,7,14,3,24,0.00,1,,186
2012-10-3,77,55,33,39,30,12,87,51,10,29.90,29.87,29.84,10,10,3,8,1,,0.00,0,,179
2012-10-4,57,47,37,41,30,21,81,58,39,29.99,29.83,29.65,10,10,10,24,8,37,0.00,6,,245
2012-10-5,41,37,33,30,22,18,87,56,39,30.07,29.99,29.96,10,10,7,23,15,31,0.00,8,Rain-Snow,281
2012-10-6,44,37,28,30,19,10,87,55,25,30.23,30.17,30.07,10,10,10,16,6,24,0.00,6,,341
2012-10-7,50,36,21,23,14,7,86,49,17,30.16,29.99,29.82,10,10,10,17,3,23,0.00,1,,223
2012-10-8,50,40,30,36,24,12,71,54,37,29.81,29.66,29.53,10,10,10,15,3,23,0.02,5,Rain,204
2012-10-9,44,38,33,32,27,21,87,64,42,29.90,29.73,29.65,10,10,7,17,6,28,0.00,5,,278
2012-10-10,46,38,30,30,21,12,81,53,27,30.01,29.95,29.90,10,10,7,16,3,23,0.00,6,Rain,271
2012-10-11,44,35,26,32,22,10,93,62,27,30.34,30.09,29.86,10,10,7,16,6,26,0.01,3,Rain,324
2012-10-12,50,34,19,25,12,-2,80,47,13,30.41,30.27,29.99,10,10,10,13,3,18,0.00,2,,181
2012-10-13,48,44,41,39,33,10,87,67,25,29.99,29.79,29.69,10,7,0,12,5,25,0.00,8,Fog,162
2012-10-14,55,48,41,37,30,18,87,58,23,29.84,29.79,29.76,10,8,0,16,6,23,0.00,5,Fog,7
2012-10-15,59,46,32,32,27,21,87,51,25,29.92,29.84,29.70,10,10,10,7,2,,0.00,3,,203
2012-10-16,68,56,42,43,36,27,82,53,28,29.69,29.50,29.39,10,10,7,7,3,,0.01,4,Rain,167
2012-10-17,60,50,41,45,38,36,87,70,48,29.37,29.21,29.08,10,8,1,16,4,25,0.00,6,Rain,98
2012-10-18,50,46,42,39,37,36,81,73,62,29.39,29.22,29.13,10,10,4,0,0,,0.01,7,Rain,-1
2012-10-19,51,43,33,41,36,28,87,71,43,29.72,29.58,29.40,10,9,2,9,1,,0.01,7,Rain,48
2012-10-20,55,42,28,37,30,25,93,69,36,29.79,29.75,29.71,10,8,0,8,0,,0.00,3,Fog,186
2012-10-21,62,48,33,37,33,27,93,65,26,29.93,29.84,29.79,10,7,0,9,1,,0.00,3,Fog,117
2012-10-22,51,46,41,41,37,34,81,69,58,30.04,29.99,29.93,10,10,7,15,5,22,0.00,6,,55
2012-10-23,46,45,44,41,40,37,87,85,76,29.93,29.79,29.73,10,5,0,10,7,16,0.00,8,Fog-Rain-Thunderstorm,72
2012-10-24,57,50,42,48,43,36,88,79,63,29.86,29.80,29.76,10,6,0,15,3,21,0.00,7,Fog-Rain-Thunderstorm,355
2012-10-25,42,37,32,36,29,23,87,77,65,30.00,29.82,29.71,10,7,1,16,11,24,0.08,8,Rain-Snow,319
2012-10-26,37,34,28,23,16,9,69,49,33,30.26,30.19,30.01,10,10,10,15,8,24,0.00,7,,260
2012-10-27,41,32,24,21,15,9,80,54,29,30.31,30.28,30.25,10,10,10,12,2,,0.00,5,,266
2012-10-28,41,34,28,25,20,14,74,57,33,30.30,30.28,30.26,10,10,10,15,2,18,0.00,7,,210
2012-10-29,46,38,30,30,20,10,81,54,23,30.31,30.28,30.25,10,10,10,7,2,,0.00,6,,99
2012-10-30,44,34,23,32,18,3,93,59,21,30.26,30.17,30.06,10,9,0,10,3,16,0.00,2,Fog,55
2012-10-31,48,34,21,18,8,-8,74,41,10,30.06,29.97,29.89,10,10,10,8,3,,0.00,2,,335